Simultaneous Nadir Overpasses (SNOs) Predictions

Prediction of SNOs between FY3D and TERRA Satellite Orbit:

Table of predicted SNOs for the next 14.0 days since TLE Epoch: 8/22/2025
Index Date (FY3D) Time (FY3D) Lat,Lon (FY3D) SZA (FY3D ) Date (TERRA) Time (TERRA) Lat,Lon (TERRA) SZA (TERRA ) Distance(km) Time Diff (sec)
1 08/24/2025 20:13:14 -78.07, 56.94 112.79 08/24/2025 20:13:43 -78.04, 56.91 112.83 3.75 29
2 08/24/2025 21:03:59 78.04,-135.56 67.19 08/24/2025 21:03:02 78.00,-135.58 67.15 4.23 57
3 08/27/2025 06:34:41 78.07, 81.68 68.05 08/27/2025 06:35:17 78.08, 81.62 68.06 1.56 36
4 08/27/2025 07:25:24 -78.04,-110.85 111.97 08/27/2025 07:24:38 -78.04,-110.86 111.97 0.40 46
5 08/29/2025 16:56:08 -78.10, 106.17 111.05 08/29/2025 16:56:54 -78.11, 106.32 111.05 3.51 46
6 08/29/2025 17:46:52 78.04, -86.14 68.90 08/29/2025 17:46:13 78.06, -86.24 68.91 3.19 39
7 09/01/2025 03:17:36 78.11, 130.85 69.83 09/01/2025 03:18:29 78.10, 130.85 69.83 0.34 53
8 09/01/2025 04:08:19 -78.07, -61.65 110.20 09/01/2025 04:07:50 -78.08, -61.57 110.19 2.02 29
9 09/03/2025 13:39:02 -78.11, 155.57 109.29 09/03/2025 13:40:06 -78.12, 155.49 109.27 2.83 64



Historial Predications of SNOs between FY3D and TERRA
